LTBALBWN

Guest
Details From LTBA - Istanbul Ataturk
To LBWN - Varna
Flight Number -
Tags generated
Created
Modified
Stats Distance 143 nm / 265 km
Max Altitude 10,200 ft / 3,109 m
Waypoints 3
Social Downloads 3
Likes 0
Share VATSIM

Download

Looking for another format? Having issues loading an existing format? Contact us
Advertisement - Login to hide

Notes

Basic altitude profile: - Ascent Rate: 2500ft/min - Ascent Speed: 250kts - Cruise Altitude: 35000ft - Cruise Speed: 420kts - Descent Rate: 1500ft/min - Descent Speed: 250kts Options: - Use NATs: yes - Use PACOTS: yes - Use low airways: yes - Use high airways: yes

Route

LTBA OMORI LBWN

ID Type Via Altitude Latitude Longitude Leg Dist Tot Dist Heading (true) Name
O LTBA APT - 0 ft / 0 m 40.97914˚ 28.81283˚ - 0 nm - Istanbul Ataturk
OMORI FIX - 10,200 ft / 3,109 m 42.45000˚ 28.01667˚ 95 nm 95 nm 338° / 338° -
O LBWN APT - 0 ft / 0 m 43.23204˚ 27.82524˚ 47 nm 142 nm 350° / 350° Varna

Altitude Profile

Advertisement - Login to hide

LTBA

Details ICAO LTBA (IST)
Name Istanbul Ataturk
Region Turkey
Timezone Europe/Istanbul (UTC+3.0)
Stats Elevation 163 ft / 50 m (AMSL)
Location 40.979136° 28.812832°
Runways 3
Magnetic Variation 5.429° E

METAR

LTBA 161050Z 20017KT CAVOK 17/11 Q1011 NOSIG

Decode

TAF

Not found

Departure Runways

ID Width Length Bearing (true) Bearing (mag) Surface Threshold Offset Overrun Length
05 197 ft / 60 m 8,514 ft / 2,595 m 58.64° 53.21° Concrete 400 ft / 122 m 197 ft / 60 m
17L 148 ft / 45 m 9,820 ft / 2,993 m 178.48° 173.05° Concrete 0 ft / 0 m 197 ft / 60 m
17R 148 ft / 45 m 9,858 ft / 3,005 m 178.49° 173.06° Concrete 0 ft / 0 m 0 ft / 0 m
23 197 ft / 60 m 8,514 ft / 2,595 m 238.65° 233.22° Concrete 0 ft / 0 m 197 ft / 60 m
35L 148 ft / 45 m 9,858 ft / 3,005 m 358.49° 353.06° Concrete 0 ft / 0 m 200 ft / 61 m
35R 148 ft / 45 m 9,820 ft / 2,993 m 358.48° 353.05° Concrete 0 ft / 0 m 197 ft / 60 m

LBWN

Details ICAO LBWN (VAR)
Name Varna
Region Bulgaria
Timezone Europe/Sofia (UTC+2.0)
Stats Elevation 230 ft / 70 m (AMSL)
Location 43.232042° 27.825236°
Runways 1
Magnetic Variation 5.647° E

METAR

LBWN 161100Z 24013KT 9999 FEW043 18/09 Q1005 NOSIG

Decode

TAF

TAF LBWN 160500Z 1606/1706 14008KT 9999 SCT033 BECMG 1606/1608 21012KT TEMPO 1608/1616 21014G24KT BECMG 1616/1618 SCT025 BKN040 TEMPO 1618/1624 5000 RA BKN020 OVC040 BECMG 1700/1702 33018KT 5000 RA BKN015 OVC030

Decode

Destination Runways

ID Width Length Bearing (true) Bearing (mag) Surface Threshold Offset Overrun Length
09 180 ft / 55 m 8,254 ft / 2,516 m 97.11° 91.46° Concrete 350 ft / 107 m 0 ft / 0 m
27 180 ft / 55 m 8,254 ft / 2,516 m 277.13° 271.48° Concrete 350 ft / 107 m 0 ft / 0 m

Approach Navaids

Runway Type Ident Frequency Range Bearing (true) Bearing (mag) Slope Elevation
09 Localiser IWN 109.90 MHz 18 nm / 33 km 97.27° 91.62° - 230 ft / 70 m (AMSL)
09 Glidescope IWN 109.90 MHz 10 nm / 19 km 97.12° 91.48° 3.00° 230 ft / 70 m (AMSL)

Popular Alternatives